www.pogodaiklimat.ru
ПОГОДА в Чикаго
Время
и дата
04:04 03.12
04:53 03.12
05:53 03.12
06:53 03.12
07:53 03.12
08:53 03.12
09:53 03.12
10:53 03.12
11:53 03.12
12:53 03.12
13:53 03.12
14:53 03.12
15:53 03.12
16:53 03.12
17:53 03.12
18:53 03.12
19:53 03.12
20:53 03.12
21:53 03.12
22:53 03.12
23:53 03.12
00:53 04.12
01:53 04.12
02:53 04.12
03:53 04.12
04:53 04.12
05:53 04.12
06:53 04.12
07:53 04.12
08:53 04.12
09:53 04.12
10:53 04.12
11:53 04.12
12:53 04.12
13:53 04.12
14:53 04.12
15:53 04.12
16:53 04.12
17:53 04.12
18:53 04.12
19:53 04.12
20:53 04.12
21:53 04.12
22:53 04.12
23:53 04.12
00:53 05.12
01:53 05.12
02:53 05.12
Ветер
(напр.,м/с)
Видим. Явления Облачность Т
(С)
Тd
(С)
f
(%)
Тe
(С)
Тes
(С)
Комфортность P
(гПа)
Po
(гПа)
Тmin
(С)
Tmax
(С)
R
(мм)
R24
(мм)
S
(см)
З 12
{17}
16 км 8/5 750 m
[Ac]
0.0 -5.6 66 -8 -8 993.7
З 9
{17}
16 км 2/2 750 m
[Ac]
-1.7 -7.2 66 -10 -10 1018.3 995.0
З 10
{15}
16 км 2/2 750 м -3.3 -8.9 65 -12 -12 1021.2 997.7 -3.3 +11.1
З 7
{11}
16 км 2/2 750 м -4.4 -10.6 62 -12 -12 1023.4 1000.0
З 7
{14}
16 км 2/2 750 м -5.0 -10.6 65 -13 -13 1025.0 1001.3
З 9
{14}
16 км 2/2 750 м -4.4 -11.1 59 -13 -13 1027.1 1003.3
СЗ 8
{12}
16 км 2/2 900 м -3.3 -11.1 55 -11 -11 1028.0 1004.3
З 7 16 км 2/2 900 м -2.2 -11.7 48 -9 -9 1028.5 1004.9
З 6
{10}
16 км ясно -1.1 -11.7 44 -7 -6 1029.4 1005.9 -5.0 -1.1
З 7 16 км ясно -0.6 -12.2 41 -7 -6 1029.8 1006.3
СЗ 7
{10}
16 км 2/0 7500 m
[Ci]
0.0 -12.8 37 -6 -5 1029.8 1006.3
З 5 16 км 2/0 7500 m
[Ci]
0.0 -12.8 37 -5 -4 1030.1 1006.3
З 7 16 км 2/0 7500 m
[Ci]
-0.6 -13.3 38 -7 -7 1030.6 1006.6
З 5 16 км 2/0 7500 m
[Ci]
-1.7 -13.9 39 -7 -7 1031.2 1006.9
З 5 16 км 2/0 7500 m
[Ci]
-2.8 -12.8 46 -9 -9 1031.2 1006.9 -2.8
З 5 16 км 2/0 7500 m
[Ci]
-3.3 -12.8 48 -9 -9 1032.7 1008.2
З 5 16 км ясно -3.9 -13.3 48 -10 -10 1032.4 1007.9
З 6 16 км ясно -4.4 -13.3 50 -11 -11 1032.2 1007.6
З 4 16 км ясно -5.6 -12.8 57 -12 -12 1031.2 1006.6
З 4 16 км ясно -5.6 -13.3 55 -12 -12 1031.4 1006.9
З 3 16 км ясно -6.1 -13.3 57 -11 -11 1030.9 1006.6 -6.1 -2.8
ЮЗ 3 16 км ясно -7.2 -13.3 62 -13 -13 1030.2 1005.9
ЮЗ 3 16 км ясно -7.2 -12.8 64 -13 -13 1029.3 1004.9
ЮЗ 3 16 км ясно -7.2 -12.8 64 -13 -13 1028.6 1004.3
ЮЗ 4 16 км ясно -7.2 -12.8 64 -14 -14 1027.6 1003.3
ЮЗ 3 16 км ясно -7.2 -12.8 64 -13 -13 1027.1 1002.6
ЮЗ 4
{9}
16 км ясно -6.7 -12.8 62 -13 -13 1026.3 1002.0 -7.8 -6.1
ЮЗ 4 16 км 2/0 6300 m
[Ci]
-6.7 -12.2 65 -13 -13 1026.4 1002.0
ЮЗ 5 16 км 2/0 6300 m
[Ci]
-5.6 -11.7 62 -12 -12 1026.4 1002.0
ЮЗ 5 16 км 2/0 7500 m
[Ci]
-3.9 -11.1 57 -10 -10 1025.6 1001.3
З 6 16 км 2/0 7500 m
[Ci]
-1.1 -11.7 44 -7 -7 1025.1 1001.0
ЮЗ 6 16 км ясно +1.1 -11.1 40 -4 -3 1024.2 1000.0
ЮЗ 7
{12}
16 км ясно +2.2 -11.1 37 -3 -2 1022.5 998.6 -6.7 +2.2
ЮЗ 8
{12}
16 км 2/0 7500 m
[Ci]
+3.3 -10.6 35 -2 -2 1021.2 997.3
ЮЗ 6
{10}
16 км 2/0 7500 m
[Ci]
+4.4 -10.6 33 0 +2 1021.1 997.3
ЮЗ 6 16 км 2/0 7500 m
[Ci]
+4.4 -10.0 34 0 +1 1020.4 996.7
ЮЗ 7
{9}
16 км 2/0 7500 m
[Ci]
+3.9 -10.6 34 -1 -1 1020.0 996.0
ЮЗ 5 16 км 2/0 7500 m
[Ci]
+2.8 -10.0 38 -2 -2 1019.4 995.3
ЮЗ 5 16 км 2/0 7500 m
[Ci]
+1.7 -9.4 43 -3 -3 1018.9 995.0 +1.7 +4.4
ЮЗ 6
{11}
16 км 2/0 7500 m
[Ci]
+1.7 -8.9 45 -4 -4 1018.7 994.7
ЮЗ 4
{9}
16 км 2/0 7500 m
[Ci]
+1.1 -8.3 49 -3 -3 1018.5 994.7
ЮЗ 6
{11}
16 км 2/0 7500 m
[Ci]
+0.6 -7.8 53 -5 -5 1018.2 994.3
ЮЗ 7
{11}
16 км 2/0 7500 m
[Ci]
-0.6 -7.2 61 -7 -7 1017.7 994.0
ЮЗ 5
{11}
16 км 2/0 7500 m
[Ci]
-0.6 -7.2 61 -6 -6 1017.3 993.7
ЮЗ 4
{10}
16 км 2/0 7500 m
[Ci]
-1.1 -7.2 63 -6 -6 1016.7 993.0 -1.1 +2.2
Ю 4 16 км 2/0 7500 m
[Ci]
-1.7 -7.2 66 -7 -7 1015.7 992.0
Ю 3 16 км 5/0 7500 m
[Ci]
-1.7 -7.2 66 -6 -6 1016.0 992.4
Ю 4 16 км 8/0 6300 m
[Ci]
-1.7 -7.2 66 -7 -7 1015.7 992.0
Местоположение метеостанции Chicago Midway Airport: широта 41.7842 долгота -87.7553 высота над уровнем моря 188 м.
В архиве по умолчанию представлена погода в Чикаго за последние 1-2 суток. Обновление информации о фактической погоде в базе происходит ежечасно! Архивные данные за месяц целиком и за предыдущие месяцы Вы можете получить, выбрав интересующий диапазон дат из раскрывающегося списка и нажав кнопку "Ввод!".
Внимание! Архив погоды МЕТАР в базе сайта по станциям, не включенным в климатический монитор, хранится не более 60 дней. Нет смысла пытаться выбрать более раннюю дату.
*Определитесь, кто Вы:
Внимание! Время в таблицах - местное (без учета летнего времени). Для получения всемирного времени необходимо вычесть поправку, которая равна -6 ч.
Смотрите также архив погоды в соседних городах и на ближайших метеорологических станциях:
Партнеры нашего сайта:      
Пояснения к столбцам:
  • Ветер - указаны скорость ветра в м/с - средняя за 10 мин, порывы в срок и между сроками (в фигурных скобках) и направление, откуда дует ветер: С - северный,
  • СВ - северо-восточный, В - восточный, ЮВ - юго-восточный, Ю - южный, ЮЗ - юго-западный, З - западный, СЗ - северо-западный.
  • Видимость - горизонтальная дальность видимости в метрах или километрах. При видимости от 1 до 10 км при отсутствии осадков обычно наблюдается дымка, при ухудшении видимости до 1 км и менее - туман. В сухую погоду видимость может ухудшаться дымом, пылью или мглою.
  • Явления - указаны атмосферные явления, наблюдавшиеся в срок или в последний час перед сроком; фигурными скобками обозначены явления, наблюдавшиеся между сроками (за 1-3 часа до срока); квадратными скобками обозначены град или гололедные отложения с указанием их диаметра в мм.
  • Облачность - указаны через наклонную черту общая и нижняя облачность в баллах и высота нижней границы облаков в метрах; квадратными скобками обозначены формы облаков: Ci - перистые, Cs - перисто-слоистые, Cc - перисто-кучевые, Ac - высококучевые, As - высокослоистые, Sc - слоисто-кучевые, Ns - слоисто-дождевые, Cu - кучевые, Cb - кучево-дождевые. Подробнее классификацию облаков см. в Атласе облаков (PDF).
  • T - Температура воздуха - температура, измеренная на высоте 2 м над землей.
  • Td - Температура точки росы - температура, при понижении до которой содержащийся в воздухе водяной пар достигнет насыщения.
  • f - Относительная влажность воздуха - влажноcть воздуха, измеренная на высоте 2 м над землей.
  • Te - Эффективная температура - температура, которую ощущает одетый по сезону человек в тени. Характеристика душности погоды. При расчете учитывается влияние влажности воздуха и скорости ветра на теплоощущения человека.
  • Tes - Эффективная температура на солнце - температура, которую ощущает человек, с поправкой на солнечный нагрев. Характеристика знойности погоды. Зависит от высоты солнца над горизонтом, облачности и скорости ветра. Ночью, в пасмурную погоду, а также при ветре 12 м/с и более поправка равна нулю.
  • P - Атмосферное давление - приведенное к уровню моря атмосферное давление.
  • Po - Атмосферное давление - измеренное на уровне метеостанции атмосферное давление.
  • Tmin - Минимальная температура - минимум температуры воздуха на высоте 2 м над землей.
  • Tmax - Максимальная температура - максимум температуры воздуха на высоте 2 м над землей.
  • R - Количество осадков - Количество выпавших осадков за период времени, мм. При наведении курсора мыши на число - период времени, за который выпало указанное количество осадков.
  • R24 - Количество осадков - Количество выпавших осадков за 24 часа, мм.
  • S - Снежный покров - Высота снежного покрова, см. При наведении курсора мыши на число - состояние снежного покрова и степень покрытия местности в баллах.